Find Starlink 11082

NORAD ID: 59711 Int'l Des: 2024-088 Owner: SPXS Country: US Constellation: starlink operational
LEOCIRCULAR

Live-Position

3D-Globus wird geladen...

Über Starlink 11082

Beschreibung wird geladen...

Nächste Überflüge

Passes for default location (London). Set your location on the main map for personalized predictions.

Höhenverlauf

Loading altitude history...

Zweizeiliger Elementsatz

1 59711U 24088D 26125.06273737 .00008068 00000-0 71474-4 0 9995
2 59711 53.1587 48.5617 0001192 74.3309 285.7840 15.69678726115125
Epoch: 5. Mai 2026 • Age: 15 hours

Aktueller Status

Höhe 359.9 km
Geschwindigkeit 7.70 km/s
Subsatellitenpunkt 4.89°N, 66.69°W
Startdatum 10. Mai 2024
Alter 1.9 years
Typ internet

Technische Details

Klassifizierung Payload
Masse 960.00 kg
Trockenmasse 910.00 kg
Gesamtmasse 960.00 kg
Länge 0.30 m
Durchmesser 4.10 m
Spannweite 29.00 m
Form Box + pan
Hersteller SPXS
Bus-Typ Starlink V2MD
Phasenstatus In Orbit
Besitzer/Staat SPXS/US

Most Searched